Waarnemingen

Advertentie
Mijn weer
Brüssel, België (6451): temperatuur & dauwpunt: 14.07.2019 03:00:00 - 20.07.2019 03:00:00 (CEST)Brüssel, België (6451): windsnelheid & windstoten: 14.07.2019 03:00:00 - 20.07.2019 03:00:00 (CEST)Brüssel, België (6451): windrichting: 14.07.2019 03:00:00 - 20.07.2019 03:00:00 (CEST)Brüssel, België (6451): luchtdruk: 14.07.2019 03:00:00 - 20.07.2019 03:00:00 (CEST)Brüssel, België (6451): zicht: 14.07.2019 03:00:00 - 20.07.2019 03:00:00 (CEST)
Datum & Tijd tt [°C] td [°C] ff [km/u] ff [kn] fx [km/u] fx [kn] dd ppp [hPa] vv [km]
20.07.2019 03:00:00 18,6 13,9 11 6 22 12 Z 1011,2 10
20.07.2019 02:00:00 19,2 13,8 13 7 - - Z 1011,6 10
20.07.2019 01:00:00 19,5 14,0 13 7 18 10 Z 1012,2 10
20.07.2019 00:00:00 19,6 13,9 11 6 14 8 Z 1012,6 10
19.07.2019 23:00:00 18,7 13,6 9 5 - - ZZO 1012,8 10
19.07.2019 22:00:00 19,2 14,2 5 3 11 6 ZZO 1013,1 10
19.07.2019 21:00:00 21,8 13,3 8 4 18 10 Z 1013,1 10
19.07.2019 20:00:00 23,2 12,5 11 6 - - ZZW 1013,4 10
19.07.2019 19:00:00 23,6 12,0 13 7 25 14 ZW 1013,6 10
19.07.2019 18:00:00 24,0 11,8 11 6 25 14 ZW 1013,9 10
19.07.2019 17:00:00 23,8 11,1 13 7 - - ZZW 1014,1 10
19.07.2019 16:00:00 23,0 11,0 11 6 29 16 ZW 1014,4 10
19.07.2019 15:00:00 23,3 11,9 11 6 25 14 ZW 1014,9 10
19.07.2019 14:00:00 22,0 11,5 15 8 - - ZW 1014,8 10
19.07.2019 13:00:00 22,4 12,3 13 7 25 14 ZW 1014,7 10
19.07.2019 12:00:00 21,6 13,3 13 7 22 12 ZW 1014,8 10
19.07.2019 11:00:00 19,6 13,1 11 6 - - WZW 1015,1 10
19.07.2019 10:00:00 18,9 13,6 11 6 18 10 ZW 1015,0 10
19.07.2019 09:00:00 17,1 13,2 9 5 18 10 ZW 1014,6 10
19.07.2019 08:00:00 16,4 12,9 13 7 - - WZW 1014,3 10
19.07.2019 07:00:00 15,9 12,6 11 6 18 10 WZW 1014,0 45
19.07.2019 06:00:00 15,3 12,3 8 4 22 12 ZW 1013,8 10
19.07.2019 05:00:00 16,0 13,0 11 6 - - ZW 1013,7 45
19.07.2019 04:00:00 16,6 12,6 11 6 22 12 WZW 1013,8 10
19.07.2019 03:00:00 17,3 13,2 13 7 22 12 WZW 1013,6 10
19.07.2019 02:00:00 17,9 14,0 15 8 - - WZW 1013,5 10
19.07.2019 01:00:00 18,2 14,3 11 6 18 10 WZW 1013,4 10
19.07.2019 00:00:00 17,6 14,4 8 4 14 8 ZW 1013,2 10
18.07.2019 23:00:00 18,3 14,7 8 4 - - ZW 1013,2 10
18.07.2019 22:00:00 18,7 14,9 8 4 22 12 ZW 1013,0 10
18.07.2019 21:00:00 19,7 14,3 15 8 29 16 WZW 1012,7 10
18.07.2019 20:00:00 20,1 13,8 18 10 - - WZW 1012,6 10
18.07.2019 19:00:00 19,9 14,2 22 12 36 19 W 1012,5 10
18.07.2019 18:00:00 22,3 12,7 18 10 29 16 WZW 1011,9 15
18.07.2019 17:00:00 22,6 13,7 15 8 - - WZW 1011,9 10
18.07.2019 16:00:00 21,8 12,7 18 10 29 16 WZW 1012,3 15
18.07.2019 15:00:00 22,2 12,7 11 6 25 14 ZW 1012,1 10
18.07.2019 14:00:00 21,4 11,8 14 8 - - W 1012,2 15
18.07.2019 13:00:00 21,2 12,1 18 10 29 16 WZW 1012,3 10
18.07.2019 12:00:00 20,4 12,2 15 8 25 14 WZW 1012,3 10
18.07.2019 11:00:00 19,2 11,7 16 9 - - ZW 1012,1 10
18.07.2019 10:00:00 19,3 12,2 11 6 22 12 WZW 1012,1 10
18.07.2019 09:00:00 17,5 11,9 11 6 22 12 WZW 1012,2 10
18.07.2019 08:00:00 16,1 10,7 9 5 - - WZW 1012,1 10
18.07.2019 07:00:00 15,7 12,5 9 5 18 10 WZW 1011,8 10
18.07.2019 06:00:00 15,3 12,0 9 5 11 6 ZW 1011,8 10
18.07.2019 05:00:00 15,0 12,1 8 4 - - Z 1011,6 10
18.07.2019 04:00:00 17,0 11,6 9 5 14 8 Z 1011,8 10
18.07.2019 03:00:00 16,7 11,8 9 5 18 10 ZZO 1012,3 10
18.07.2019 02:00:00 18,2 11,7 11 6 - - ZZO 1012,7 10
18.07.2019 01:00:00 18,2 12,1 9 5 14 8 ZO 1012,7 10
18.07.2019 00:00:00 18,0 12,2 8 4 14 8 ZO 1012,9 10
17.07.2019 23:00:00 17,3 13,6 8 4 - - ZO 1013,2 10
17.07.2019 22:00:00 18,4 14,0 5 3 11 6 ZO 1013,3 10
17.07.2019 21:00:00 21,5 12,6 8 4 11 6 ZO 1013,3 10
17.07.2019 20:00:00 22,6 13,0 4 2 - - ONO 1013,5 10
17.07.2019 19:00:00 23,7 11,8 5 3 14 8 ONO 1013,8 10
17.07.2019 18:00:00 23,8 10,4 7 4 22 12 N 1014,1 40
17.07.2019 17:00:00 23,4 11,3 8 4 - - NO 1014,7 10
17.07.2019 16:00:00 23,4 11,4 4 2 14 8 - 1015,2 10
17.07.2019 15:00:00 22,6 11,2 0 0 18 10 N 1015,5 10
17.07.2019 14:00:00 22,1 10,7 8 4 - - N 1015,8 10
17.07.2019 13:00:00 21,5 12,0 2 1 14 8 - 1016,3 10
17.07.2019 12:00:00 20,5 12,5 2 1 11 6 - 1016,6 10
17.07.2019 11:00:00 19,5 12,8 0 0 - - N 1016,7 10
17.07.2019 10:00:00 18,5 13,1 2 1 7 4 - 1016,9 10
17.07.2019 09:00:00 17,1 13,1 2 1 4 2 - 1016,9 10
17.07.2019 08:00:00 14,1 12,9 0 0 - - N 1016,7 7
17.07.2019 07:00:00 10,0 9,6 2 1 4 2 Z 1016,8 5
17.07.2019 06:00:00 9,2 8,7 0 0 0 0 N 1017,1 4,0
17.07.2019 05:00:00 10,4 9,7 0 0 - - N 1017,0 7
17.07.2019 04:00:00 10,4 9,7 0 0 4 2 N 1017,4 10
17.07.2019 03:00:00 11,7 10,2 4 2 4 2 NW 1017,9 10
17.07.2019 02:00:00 12,5 10,5 2 1 - - NW 1017,9 10
17.07.2019 01:00:00 12,4 10,5 2 1 4 2 - 1018,0 10
17.07.2019 00:00:00 12,3 11,2 0 0 4 2 N 1018,0 10
16.07.2019 23:00:00 15,2 11,8 2 1 - - - 1018,1 10
16.07.2019 22:00:00 15,5 11,8 4 2 11 6 - 1018,1 10
16.07.2019 21:00:00 18,4 10,9 8 4 14 8 NNW 1018,1 10
16.07.2019 20:00:00 19,6 10,8 8 4 - - NNW 1018,2 10
16.07.2019 19:00:00 19,9 10,4 9 5 14 8 NW 1018,4 10
16.07.2019 18:00:00 19,9 10,2 8 4 18 10 NNW 1018,7 10
16.07.2019 17:00:00 20,1 10,5 9 5 - - N 1019,1 10
16.07.2019 16:00:00 19,9 10,5 5 3 18 10 W 1019,4 10
16.07.2019 15:00:00 18,3 8,7 4 2 18 10 - 1019,7 10
16.07.2019 14:00:00 17,5 10,1 2 1 - - - 1020,1 10
16.07.2019 13:00:00 16,4 10,1 4 2 14 8 - 1020,4 45
16.07.2019 12:00:00 15,7 9,8 4 2 14 8 - 1020,6 10
16.07.2019 11:00:00 15,3 9,3 9 5 - - NW 1020,7 10
16.07.2019 10:00:00 14,8 9,6 9 5 11 6 NW 1020,7 10
16.07.2019 09:00:00 14,3 10,6 8 4 11 6 NW 1020,6 10
16.07.2019 08:00:00 13,5 12,3 2 1 - - ZZW 1020,5 10
16.07.2019 07:00:00 12,6 11,9 4 2 7 4 Z 1020,4 10
16.07.2019 06:00:00 12,3 11,4 7 4 7 4 ZZW 1020,2 20
16.07.2019 05:00:00 11,7 11,2 4 2 - - Z 1020,1 10
16.07.2019 04:00:00 11,7 10,7 4 2 4 2 ZZW 1020,4 10
16.07.2019 03:00:00 11,2 10,3 4 2 4 2 W 1020,8 10
16.07.2019 02:00:00 10,8 10,1 0 0 - - N 1020,9 10
16.07.2019 01:00:00 12,1 10,6 4 2 7 4 N 1020,9 10
16.07.2019 00:00:00 13,8 11,5 5 3 7 4 N 1020,9 10
15.07.2019 23:00:00 15,0 11,9 5 3 - - NNW 1020,9 10
15.07.2019 22:00:00 15,4 11,6 8 4 14 8 NNW 1020,8 10
15.07.2019 21:00:00 16,0 11,3 9 5 18 10 NNW 1020,6 10
15.07.2019 20:00:00 16,7 10,8 13 7 - - N 1020,7 10
15.07.2019 19:00:00 17,0 11,1 13 7 22 12 NNW 1020,7 10
15.07.2019 18:00:00 17,3 10,4 8 4 14 8 NNW 1021,0 10
15.07.2019 17:00:00 16,9 10,4 8 4 - - N 1021,4 10
15.07.2019 16:00:00 16,8 10,4 11 6 18 10 N 1021,2 10
15.07.2019 15:00:00 16,5 10,8 9 5 25 14 NNO 1021,3 10
15.07.2019 14:00:00 15,4 10,3 13 7 - - NNW 1021,4 10
15.07.2019 13:00:00 15,5 10,5 8 4 14 8 N 1021,4 10
15.07.2019 12:00:00 15,3 10,9 8 4 14 8 NNW 1021,2 10
15.07.2019 11:00:00 15,1 8,9 4 2 - - - 1021,4 10
15.07.2019 10:00:00 14,7 9,9 5 3 11 6 N 1021,3 10
15.07.2019 09:00:00 13,9 10,0 2 1 7 4 - 1021,3 10
15.07.2019 08:00:00 12,9 11,1 4 2 - - - 1021,1 10
15.07.2019 07:00:00 12,1 10,7 0 0 11 6 N 1020,8 10
15.07.2019 06:00:00 10,2 9,3 2 1 4 2 - 1020,9 10
15.07.2019 05:00:00 10,6 9,9 0 0 - - N 1020,7 10
15.07.2019 04:00:00 9,9 8,8 4 2 7 4 - 1020,9 10
15.07.2019 03:00:00 10,5 9,1 5 3 7 4 N 1021,4 10
15.07.2019 02:00:00 10,8 9,5 4 2 - - - 1021,5 10
15.07.2019 01:00:00 11,7 10,2 8 4 14 8 N 1021,6 10
15.07.2019 00:00:00 13,8 10,5 11 6 18 10 N 1021,5 10
14.07.2019 23:00:00 15,4 11,3 9 5 - - N 1021,2 10
14.07.2019 22:00:00 16,2 11,6 15 8 22 12 NNO 1021,0 10
14.07.2019 21:00:00 17,0 11,6 9 5 22 12 N 1020,8 10
14.07.2019 20:00:00 17,3 11,7 11 6 - - NNO 1020,8 10
14.07.2019 19:00:00 17,6 11,7 9 5 22 12 NNO 1020,8 10
14.07.2019 18:00:00 18,6 11,5 13 7 25 14 N 1020,6 10
14.07.2019 17:00:00 17,6 11,2 18 10 - - N 1020,9 10
14.07.2019 16:00:00 18,6 10,7 13 7 29 16 N 1020,9 10
14.07.2019 15:00:00 18,1 10,6 11 6 22 12 N 1021,1 10
14.07.2019 14:00:00 16,5 11,4 15 8 - - NNW 1021,3 10
14.07.2019 13:00:00 17,5 11,5 11 6 25 14 NNO 1021,3 10
14.07.2019 12:00:00 16,6 11,6 13 7 22 12 N 1021,4 10
14.07.2019 11:00:00 16,1 11,1 11 6 - - NNO 1021,4 10
14.07.2019 10:00:00 15,4 11,4 11 6 22 12 N 1021,5 10
14.07.2019 09:00:00 14,9 10,1 13 7 22 12 NO 1021,1 10
14.07.2019 08:00:00 13,8 12,0 5 3 - - NNO 1020,7 10
14.07.2019 07:00:00 13,0 11,9 4 2 18 10 NO 1020,8 15
14.07.2019 06:00:00 14,0 10,6 7 4 11 6 NNO 1020,7 25
14.07.2019 05:00:00 14,1 10,7 4 2 - - - 1020,9 10
14.07.2019 04:00:00 14,3 10,4 9 5 14 8 N 1021,0 10
14.07.2019 03:00:00 14,5 12,1 8 4 22 12 NNO 1021,1 10

tt = temperatuur
td = dauwpunt
ff = windsnelheid
fx = windstoten
dd = windrichting
ppp = luchtdruk
vv = zicht

Weerstations in de omgeving